RH
5 4 5 4 4 5 4 5 4 4 4 4 4 4 4 4 4 4 3 4 4 4 4 4 4 4 4 4 5 5 6 5 5 5 5 6 6 7 7 6 6 6 7 7 6 6 6 5 6 5 5 7 7 12 18 23 24 26 34 36 42 46 35 24 21 20 20 20 19 19 18 17 16 16 17 18 18 16 15 16 15 17 19 21 22 24 26 26
6 6 8 9 10 11 11 11 11 11 10 9 9 8 8 7 6 6 5 5 4 4 4 4 4 4 4 4 5 5 5 5 6 7 7 7 6 7 7 7 6 6 7 7 7 6 6 6 6 6 6 6 9 14 17 21 18 15 20 21 26 32 26 20 21 19 19 19 18 18 17 17 17 17 19 18 19 19 19 20 20 20 22 23 25 26 27 27
15 17 19 20 20 21 21 21 20 20 20 19 18 16 14 13 13 12 11 11 10 8 7 7 6 6 5 5 5 6 6 8 8 8 8 7 6 7 7 7 6 6 7 7 7 7 7 7 7 7 7 7 11 15 15 15 14 13 13 13 16 22 23 22 21 20 19 19 18 18 17 16 17 18 20 20 21 23 24 24 24 25 26 28 29 30 31 31
24 24 23 23 22 23 23 23 23 22 22 22 22 22 21 20 19 18 17 17 16 14 11 11 10 9 9 7 7 8 9 12 11 10 11 8 6 7 6 7 7 7 7 7 7 7 7 7 7 8 7 8 11 14 14 14 15 16 16 15 18 21 23 23 21 20 19 19 19 19 18 17 17 19 21 22 24 25 25 25 26 28 32 35 36 37 37 37
23 23 22 23 23 24 25 26 27 28 27 27 26 26 27 27 26 24 22 22 21 18 18 17 16 15 14 13 12 11 12 16 15 14 14 11 10 10 8 7 7 7 8 8 8 8 8 8 8 8 8 9 11 12 13 14 17 18 18 18 19 20 21 22 21 21 20 20 20 20 19 18 18 20 21 23 24 24 23 24 26 29 32 35 36 36 36 35
26 25 25 26 27 28 29 31 33 34 34 34 33 33 34 32 31 29 27 26 25 22 22 22 21 20 20 18 16 15 15 18 18 16 15 15 15 13 10 8 7 7 8 8 9 9 9 9 9 9 9 10 11 13 14 16 18 19 19 19 19 19 19 20 21 21 21 21 21 20 19 17 16 18 20 22 23 24 24 25 26 28 30 31 32 32 32 32
28 27 28 28 30 32 32 32 32 32 34 34 34 34 32 30 28 26 25 23 22 20 21 22 21 20 20 17 16 17 15 15 17 17 17 17 16 12 9 7 7 7 7 8 9 9 10 10 10 10 10 13 13 14 17 17 18 19 20 20 19 18 18 19 20 20 21 22 22 20 17 17 16 17 19 22 24 24 26 29 30 32 33 34 34 34 35 36
29 28 29 31 33 34 34 32 29 28 28 28 28 27 26 26 26 24 20 17 15 15 17 18 17 16 14 12 12 15 15 16 19 19 16 14 11 9 8 7 7 7 7 9 9 10 11 10 11 11 12 14 15 17 20 19 19 20 20 20 19 20 21 22 22 22 23 23 21 19 18 19 19 20 22 23 25 26 31 34 36 37 38 38 39 39 40 40
33 32 33 34 35 35 35 34 33 31 29 29 27 27 27 27 26 21 15 12 11 12 12 13 14 13 12 10 11 14 18 20 19 16 13 11 10 9 9 9 8 8 8 9 10 10 11 11 12 13 13 14 15 18 23 21 20 22 21 21 21 22 23 25 26 26 25 22 21 21 22 22 23 23 25 27 28 30 34 38 40 41 42 42 42 42 43 43
37 38 37 37 35 35 35 34 35 34 33 32 30 29 28 26 21 14 11 12 12 11 10 10 11 11 11 10 11 13 16 17 15 12 12 12 12 11 11 11 10 9 9 9 10 10 11 12 12 13 14 14 15 19 22 23 24 26 24 25 26 26 26 27 28 27 25 23 23 25 25 25 25 25 28 31 32 34 38 41 43 44 45 45 45 45 45 44
40 41 40 39 37 36 34 34 33 33 32 31 30 28 25 21 16 10 9 12 12 11 10 9 10 10 10 10 11 12 13 14 12 11 11 11 11 11 10 10 11 10 10 10 10 10 11 12 12 12 13 14 15 17 19 21 23 25 24 24 27 27 28 28 28 27 26 26 27 28 28 28 28 29 32 34 37 39 41 43 42 42 43 43 43 44 44 43
42 41 39 37 35 34 33 32 31 30 29 27 26 23 20 16 11 8 8 9 10 11 11 10 10 10 11 11 12 13 13 12 11 11 10 10 10 9 9 9 10 10 11 11 11 11 11 11 11 12 12 14 14 16 22 25 24 24 23 23 25 27 27 28 30 30 30 30 30 30 30 29 29 33 37 39 41 41 41 40 38 38 39 40 40 40 39 38
34 31 30 27 23 21 21 21 20 19 18 17 17 15 14 11 9 7 7 7 8 10 11 12 11 12 12 13 14 13 13 13 12 12 11 11 11 10 11 10 10 10 10 11 11 11 11 11 11 11 12 13 13 16 23 28 27 26 24 24 26 27 29 30 32 32 32 33 32 32 30 27 29 35 41 42 41 39 38 37 38 38 38 36 33 29 25 22
15 13 14 13 11 11 11 10 9 9 9 9 10 10 10 9 8 7 7 8 10 12 13 13 13 13 14 14 14 13 12 11 11 12 11 11 11 11 12 11 12 12 12 11 11 11 10 11 11 11 12 12 14 18 21 25 29 29 29 30 30 30 33 33 33 34 34 35 33 32 29 27 30 37 41 41 38 37 38 39 38 37 33 24 16 11 8 6
6 7 8 8 9 9 8 8 7 6 6 6 7 8 9 8 8 8 9 12 14 13 14 14 14 15 14 13 12 11 9 8 8 9 9 10 10 10 10 11 12 13 13 14 13 13 13 12 13 13 15 16 19 21 23 29 36 37 36 35 33 34 36 36 36 37 37 37 35 34 30 29 34 39 40 39 37 37 38 38 36 30 21 9 3 3 2 3
8 9 10 10 11 10 10 10 10 9 6 5 5 6 7 7 8 10 13 15 14 11 12 15 17 17 14 9 9 8 7 8 8 8 8 9 9 9 9 10 11 11 13 13 13 14 13 15 17 17 20 22 23 21 24 34 37 38 38 36 37 38 38 38 38 40 40 39 38 35 30 32 38 39 39 38 36 38 37 35 32 25 13 3 2 3 3 4
12 12 14 14 15 15 15 15 15 14 11 7 5 5 5 6 9 13 15 16 15 11 9 12 18 20 12 8 10 9 8 9 9 9 9 9 9 9 9 9 9 10 10 11 14 14 13 18 20 21 22 20 18 18 26 34 31 31 33 34 40 40 38 39 40 43 42 39 40 35 29 34 41 40 39 37 37 38 36 34 30 20 8 2 4 4 4 5
17 18 19 21 21 21 19 18 18 18 16 11 7 6 7 8 10 13 13 13 15 13 10 9 13 16 11 9 11 9 10 10 10 10 9 10 11 11 11 12 12 13 14 13 16 16 14 16 19 21 21 15 14 18 27 32 28 29 32 35 40 41 40 42 42 44 42 41 40 33 30 37 43 42 39 37 38 37 35 35 27 13 4 3 4 4 5 5
25 26 27 28 28 28 26 22 19 19 20 16 11 10 10 10 11 12 11 11 13 12 10 9 10 12 11 11 11 11 11 10 10 10 10 11 12 12 13 14 14 15 18 17 17 19 15 15 19 19 17 15 15 19 25 29 28 30 34 39 43 43 41 40 42 43 44 47 42 34 33 38 43 43 38 37 38 35 36 37 24 7 3 5 5 5 5 6
30 30 30 31 31 32 31 28 23 19 22 20 13 11 12 12 11 12 11 11 11 10 10 10 10 12 13 13 12 11 12 11 12 11 11 12 14 15 15 14 14 14 18 20 20 19 18 17 18 18 17 17 18 19 22 27 30 31 33 39 44 43 39 38 44 46 47 48 42 36 33 36 44 41 34 35 36 33 37 38 23 7 4 4 5 6 6 6
31 30 29 30 30 31 32 32 26 20 22 22 15 11 12 13 13 12 11 11 11 11 12 11 12 13 14 15 14 12 13 13 12 12 12 13 16 17 15 14 16 16 16 21 23 20 19 18 17 19 18 18 19 20 26 31 31 30 31 35 36 33 32 39 47 48 50 45 39 38 32 32 38 33 29 31 30 31 35 37 24 7 4 5 5 6 6 7
32 30 29 29 29 29 31 32 26 22 24 23 15 10 12 13 13 12 11 11 11 12 14 13 13 14 14 15 15 13 15 16 13 13 13 13 15 16 16 15 15 16 15 23 28 22 19 19 19 19 16 17 19 21 30 34 30 31 34 31 24 21 27 41 49 48 47 40 37 38 29 28 31 25 24 24 24 29 30 31 23 7 4 6 5 6 7 7
31 32 30 28 28 29 29 28 25 25 25 20 13 9 10 12 13 12 13 12 12 13 15 15 14 14 15 16 16 15 14 16 14 12 13 14 14 14 16 16 16 16 17 24 27 19 18 21 20 19 18 18 19 24 35 38 35 32 26 20 16 21 32 40 42 39 38 38 40 38 29 28 30 28 25 20 21 24 25 27 19 6 6 7 7 7 8 8
28 31 32 29 28 28 27 26 26 26 23 17 12 8 7 10 13 13 15 14 12 13 14 16 16 14 14 15 16 16 12 12 13 11 13 14 15 16 17 18 18 17 18 21 20 15 18 21 20 20 18 14 16 25 34 35 32 21 12 12 16 24 30 29 29 31 37 45 45 39 35 31 29 31 28 22 19 17 23 28 16 7 10 10 9 9 9 9
27 28 31 30 28 28 26 25 26 26 23 17 11 7 6 9 13 14 17 17 12 14 15 16 17 14 13 12 13 16 12 10 11 12 14 14 15 17 16 17 18 19 21 20 17 15 18 21 19 16 11 7 9 13 15 16 15 11 11 16 18 22 24 22 28 36 42 50 47 42 43 36 29 33 31 25 20 16 22 27 16 12 14 12 12 11 11 11
31 30 30 29 28 29 26 25 25 25 22 17 9 6 5 8 13 15 19 21 15 15 17 16 18 15 12 10 10 14 14 10 10 12 15 14 15 18 17 17 20 24 24 19 15 16 19 20 16 8 4 3 2 2 3 4 6 9 15 16 17 21 23 24 29 38 45 48 46 43 45 41 32 30 29 24 20 16 20 24 18 16 16 15 15 15 16 15
36 36 33 30 28 28 27 24 25 24 19 13 7 5 5 9 14 14 20 25 19 18 19 17 16 13 10 10 9 12 13 12 13 13 15 15 15 19 20 20 21 23 21 17 16 16 16 13 8 3 2 1 1 2 2 3 5 9 12 16 19 21 23 26 28 37 46 46 43 37 39 46 36 24 21 18 15 14 16 22 21 19 20 18 17 19 21 20
39 37 35 31 28 26 26 25 23 20 14 9 5 4 7 11 15 16 22 26 22 22 22 19 16 12 9 11 11 11 11 13 14 13 14 14 17 21 22 22 24 21 19 19 17 13 9 5 3 2 2 2 2 2 2 3 4 9 14 18 19 18 22 27 29 38 45 47 44 32 32 46 35 17 15 13 12 13 15 20 22 23 23 20 19 21 23 22
30 27 28 27 26 25 25 22 17 12 7 5 4 5 9 13 17 20 22 22 22 23 20 18 16 12 11 13 13 12 12 12 12 13 14 15 17 21 20 24 28 22 21 21 13 7 5 2 2 2 2 3 3 3 4 3 3 8 16 20 13 10 16 22 27 35 43 48 43 28 27 40 31 11 10 14 14 15 17 21 24 25 24 19 19 23 25 23
19 21 24 25 24 22 18 13 9 6 4 4 5 7 11 15 19 22 20 18 21 22 19 16 14 13 14 15 14 14 14 13 12 14 15 14 15 18 20 27 30 23 23 21 8 3 3 1 2 3 2 5 4 5 4 3 4 4 11 19 11 5 11 16 17 19 29 36 33 24 21 32 34 17 9 14 16 18 19 19 20 19 17 16 19 25 26 22
21 24 24 21 17 12 9 6 6 5 4 4 6 8 12 17 19 20 20 21 22 20 18 15 12 12 13 14 14 15 15 14 14 14 14 14 14 16 20 26 31 28 26 20 6 3 5 2 3 2 2 5 5 7 5 3 5 2 6 13 7 4 5 5 7 10 18 23 21 20 17 25 36 21 10 16 17 17 16 13 13 13 14 17 21 24 22 18
23 21 17 12 9 7 6 6 6 5 5 5 8 11 13 13 15 19 22 25 23 18 16 14 12 12 13 14 14 15 16 15 14 14 14 15 13 12 13 16 24 29 30 23 10 5 5 3 5 4 3 4 4 6 6 5 5 3 5 5 5 17 17 18 30 25 18 18 13 15 17 23 27 15 10 16 14 13 13 11 13 13 15 19 20 20 19 18
17 12 9 6 7 7 6 6 6 6 6 6 10 15 14 12 16 19 19 20 19 15 13 13 13 13 13 15 14 15 18 16 15 15 14 14 13 10 9 10 15 21 24 25 20 16 11 6 6 6 5 4 3 5 6 7 6 3 6 4 9 29 32 38 56 40 19 18 12 12 22 24 19 11 11 13 11 12 12 11 13 14 17 20 19 19 20 22
10 6 6 6 6 6 6 6 7 6 6 7 10 13 11 13 16 15 13 13 14 13 12 12 14 14 13 13 13 15 18 17 16 17 16 15 12 8 7 8 11 15 18 20 21 20 17 11 7 6 6 5 4 5 5 8 8 3 6 6 8 20 20 23 38 28 17 22 17 14 22 21 14 10 11 11 12 12 11 12 14 15 19 20 19 20 22 25
6 6 7 6 6 6 7 7 7 7 8 9 10 10 9 12 13 11 10 10 12 15 14 13 14 14 13 12 12 15 17 17 17 18 17 14 11 7 5 4 6 11 15 18 18 16 13 10 6 4 5 5 4 5 5 8 10 6 6 7 6 14 19 23 29 23 24 40 41 28 18 13 11 10 11 12 12 12 12 14 14 16 19 19 19 21 24 26
7 7 6 6 7 7 8 8 8 8 9 9 9 8 8 10 11 11 11 10 11 14 15 15 14 13 13 12 13 14 16 17 17 17 17 16 12 6 3 3 3 4 9 14 18 21 16 8 5 6 7 8 7 7 7 8 9 9 8 6 7 16 27 34 35 31 37 48 43 29 16 11 12 12 11 12 11 13 14 15 15 16 17 18 18 22 25 27
7 7 8 8 8 8 8 9 9 8 8 9 8 6 6 8 9 9 10 11 11 11 13 15 14 13 13 13 14 14 15 17 17 17 19 19 15 7 2 3 3 3 5 8 11 17 18 12 9 10 9 11 13 12 13 12 11 14 13 9 12 24 39 46 41 39 50 53 38 23 17 15 16 14 10 10 12 14 15 15 15 16 17 17 18 21 24 26
7 8 9 8 8 7 6 6 7 6 6 6 6 5 6 7 8 9 10 11 11 11 11 12 13 13 12 12 14 13 14 15 16 16 18 19 15 8 3 2 2 3 5 6 6 9 15 17 18 15 9 11 13 14 18 19 15 17 18 16 16 18 28 40 39 33 40 54 52 35 22 17 16 14 9 10 13 13 15 16 15 15 17 18 20 22 25 25
8 9 8 7 7 6 3 4 4 4 5 5 4 5 7 8 9 10 10 11 11 11 11 11 12 12 12 13 13 13 13 15 15 15 16 17 15 9 4 3 3 3 3 4 4 5 8 13 17 16 11 10 11 13 19 20 20 21 22 24 22 14 14 23 30 27 32 56 67 53 40 25 11 8 9 11 14 14 15 16 16 17 18 19 22 24 25 24
9 8 6 5 5 4 3 3 3 4 5 4 5 7 8 9 9 10 10 10 10 11 11 11 11 11 11 13 13 12 14 15 15 16 14 14 13 7 3 2 2 3 3 3 4 4 6 7 10 9 7 8 10 13 15 16 23 27 26 29 28 23 21 21 25 26 32 58 73 68 58 29 3 7 11 10 14 14 15 17 17 18 20 21 23 24 24 24
6 6 4 3 4 3 2 3 4 4 4 5 7 7 8 9 9 9 10 10 10 10 11 10 11 11 11 12 13 13 14 15 17 17 15 14 11 6 2 2 2 2 3 4 3 4 5 6 7 5 3 5 6 7 10 13 21 25 27 32 31 26 23 23 29 26 26 46 58 61 58 26 1 8 11 9 14 13 15 19 18 20 21 22 23 24 24 23
4 4 3 3 3 3 3 4 4 5 5 6 7 8 9 9 9 9 9 10 10 10 11 10 10 11 11 11 13 13 13 16 18 17 15 14 12 6 2 1 2 2 2 3 3 5 5 5 7 6 3 4 4 5 8 10 15 21 27 29 28 27 23 23 29 25 26 39 42 52 62 31 2 7 10 10 14 13 16 20 20 21 22 22 24 24 24 24
3 2 3 3 3 3 4 4 4 5 6 7 7 8 9 9 9 9 9 9 10 10 10 10 10 11 11 11 13 13 14 16 19 18 16 15 13 8 3 1 1 2 2 2 3 6 8 9 11 9 3 2 3 5 9 14 19 22 21 20 20 20 17 20 27 27 32 37 34 52 66 31 0 7 11 10 12 14 18 21 22 24 23 23 25 24 25 27
3 3 3 3 3 4 4 4 5 6 6 7 8 8 8 8 9 9 8 9 9 10 10 10 10 11 11 12 12 13 14 15 16 17 16 15 14 10 5 2 1 2 2 2 3 4 7 10 11 8 5 7 9 9 11 17 22 18 11 9 10 9 12 22 32 40 46 38 30 49 55 21 2 9 9 9 13 15 19 23 25 25 24 25 26 25 27 28
3 3 3 4 4 4 4 5 6 6 6 7 7 8 8 8 8 8 8 8 8 9 10 9 10 11 11 12 12 13 15 15 14 16 16 15 14 12 8 4 2 2 2 2 2 3 4 6 6 5 6 12 14 11 8 9 11 10 6 6 6 7 12 19 31 49 51 36 31 40 33 12 4 9 8 10 13 15 20 25 25 25 25 26 26 27 29 30
3 3 3 3 4 4 4 5 6 6 6 7 7 8 8 8 8 8 8 8 8 9 10 9 10 11 11 12 12 13 15 14 14 15 15 15 14 11 9 6 4 3 3 3 2 3 3 3 3 4 5 7 8 6 6 5 6 5 4 5 6 9 10 15 33 45 37 33 39 30 14 11 10 8 10 11 13 18 22 23 24 25 25 25 26 28 30 33
3 3 3 3 4 4 4 5 6 6 6 7 7 8 8 8 8 8 8 8 8 8 9 9 9 10 11 12 12 12 13 14 15 15 14 14 13 11 10 8 6 5 4 4 5 5 5 3 3 4 4 5 6 5 5 5 5 4 4 5 6 9 12 15 26 25 18 33 43 20 7 17 14 6 10 12 14 21 23 22 23 23 24 26 27 28 31 35
4 4 4 4 4 4 4 5 5 6 6 6 7 7 8 8 8 7 7 8 7 7 9 9 9 10 11 11 11 12 13 14 14 14 14 13 12 12 11 9 8 6 5 6 6 7 7 4 3 5 6 5 5 5 5 5 5 3 4 5 5 8 11 13 13 11 15 29 28 10 10 19 12 7 12 13 17 23 23 22 23 23 25 27 27 29 32 35
3 3 3 3 3 3 4 4 5 6 6 6 7 7 8 8 8 8 7 7 8 7 8 9 9 9 10 11 11 12 13 14 14 15 15 14 13 13 12 10 10 8 7 8 8 9 9 8 7 9 9 6 4 4 4 4 4 4 4 5 5 5 7 9 8 10 18 23 15 8 13 14 9 10 12 14 20 23 23 23 23 25 27 27 28 30 32 36
2 3 3 3 3 3 4 4 4 6 6 7 7 7 7 8 7 8 7 7 7 7 7 8 8 9 10 11 11 12 12 13 15 16 16 15 14 14 14 12 11 11 10 9 8 8 11 13 11 11 11 7 3 4 5 4 5 6 6 4 5 5 7 9 9 9 16 19 11 9 15 12 8 11 14 18 22 22 22 23 24 26 27 28 30 31 33 37
2 3 3 3 3 3 4 4 5 5 6 6 7 7 8 8 7 8 8 7 7 7 7 7 8 9 10 10 11 12 13 13 14 16 17 16 16 16 17 15 14 13 11 10 10 9 10 12 10 12 16 10 4 6 8 8 9 9 7 5 5 7 7 7 7 8 11 12 9 13 18 13 8 12 17 20 22 22 23 23 25 27 28 30 32 32 34 38
3 3 3 4 3 3 4 4 5 5 5 6 7 7 8 8 8 8 8 7 7 7 7 7 8 9 9 10 11 12 12 13 13 14 15 16 16 17 18 18 15 14 12 12 13 11 11 14 14 20 25 16 10 14 12 13 19 14 6 6 6 6 6 7 7 8 8 9 11 14 14 9 9 15 18 19 21 23 23 23 26 27 29 31 33 34 36 38
Wind_Speed
13 13 12 12 11 11 11 10 9 8 8 7 7 7 7 6 5 5 5 4 4 3 3 2 2 2 2 1 2 1 1 1 1 1 1 1 1 2 2 1 1 1 2 2 3 3 3 3 4 4 5 6 6 7 5 5 6 8 11 12 13 11 8 6 5 7 8 8 7 6 9 11 13 14 14 13 12 14 14 13 14 15 15 16 15 16 17 18
15 14 14 13 13 12 12 11 10 9 8 7 7 6 5 5 5 4 4 4 4 4 3 2 2 2 1 1 1 1 1 1 1 1 1 2 2 2 2 2 3 2 3 3 4 4 4 5 5 5 6 7 7 7 6 5 4 4 7 9 10 10 9 6 5 6 7 7 7 8 10 13 14 14 14 13 13 13 13 13 13 14 15 15 15 16 17 18
16 15 14 13 13 12 11 10 9 7 7 6 5 5 4 3 3 3 2 3 3 3 3 2 2 1 1 1 1 1 1 2 2 1 1 2 3 3 3 3 3 3 3 3 4 4 5 5 5 5 7 8 8 9 8 5 3 2 3 5 6 8 9 8 8 10 10 9 9 10 12 13 14 12 11 12 12 11 11 11 12 12 14 14 15 15 16 17
14 13 12 11 10 9 8 7 6 5 4 3 3 3 2 2 1 1 1 1 1 1 0 0 1 1 2 2 2 2 2 3 2 2 2 3 3 3 3 3 3 3 3 3 4 4 5 5 5 6 8 9 8 9 8 4 2 2 2 3 5 7 10 11 12 14 13 11 10 12 14 14 13 11 10 9 10 10 11 11 11 11 12 13 13 14 15 16
12 10 10 9 8 7 5 4 3 2 2 1 1 1 1 1 1 2 2 2 2 2 2 2 2 2 2 3 3 2 2 2 2 3 5 4 4 4 3 3 3 3 3 3 4 4 5 5 6 7 7 7 7 7 5 4 3 3 5 5 6 8 11 13 14 15 14 12 12 13 15 16 13 10 10 9 10 11 12 12 11 11 11 11 12 13 15 16
10 9 8 7 6 5 4 3 2 1 1 1 2 2 3 3 3 3 3 3 3 3 3 3 3 4 3 3 3 3 4 4 4 6 6 5 5 5 4 4 3 4 4 4 4 5 5 5 6 7 7 7 8 7 5 4 4 6 9 8 9 11 12 13 13 14 14 14 15 16 16 16 15 13 12 10 10 11 11 11 11 10 10 11 12 14 15 16
8 8 7 6 5 4 3 3 2 1 1 1 2 2 3 3 3 3 4 4 3 4 4 4 4 4 4 4 4 4 4 4 5 5 6 6 5 5 4 4 4 4 5 5 5 6 6 6 7 8 9 10 10 9 7 7 7 10 12 11 12 13 13 13 13 13 14 15 18 19 18 15 14 15 13 11 9 9 8 8 8 8 9 10 11 13 14 16
7 6 6 5 4 4 4 4 3 3 2 2 2 2 3 3 3 3 4 4 4 4 5 4 5 5 4 4 4 4 3 4 4 6 6 6 5 5 4 4 4 4 5 5 5 6 6 6 7 8 9 11 10 9 7 8 11 14 15 14 14 14 12 12 12 13 15 18 19 18 15 12 10 10 9 8 8 7 6 5 5 6 8 9 11 12 14 16
6 5 5 5 5 4 4 4 4 4 3 3 3 4 4 4 4 4 4 4 4 5 4 4 5 5 5 4 3 3 3 4 6 7 6 6 6 5 5 4 4 4 4 4 6 6 5 5 7 8 9 10 9 8 6 7 12 15 15 14 13 13 12 11 12 14 16 17 14 10 8 7 7 6 5 7 7 6 4 4 4 6 8 9 10 11 13 15
4 4 4 4 4 4 4 3 3 3 3 4 4 4 4 4 5 5 5 4 3 4 4 4 4 5 5 4 4 4 4 5 6 6 6 5 5 5 5 4 4 4 3 4 6 6 6 6 7 8 8 8 8 8 8 7 10 12 12 12 11 11 12 12 13 13 13 10 6 5 6 6 6 5 4 5 4 2 1 3 6 7 8 9 9 10 11 12
3 3 3 4 4 3 3 3 3 3 2 3 3 3 4 5 5 5 4 3 3 3 3 3 3 4 4 3 5 5 5 5 5 5 6 5 4 5 4 4 4 3 3 5 6 5 6 6 7 8 8 8 8 9 9 9 9 11 11 11 11 11 11 10 9 10 8 5 3 5 6 6 6 5 3 2 1 1 3 5 7 8 8 8 8 7 8 8
2 2 2 3 3 3 3 3 3 2 2 3 3 3 4 4 4 4 4 3 3 3 2 2 2 2 2 2 2 3 3 4 5 5 5 6 5 4 4 4 4 3 4 5 6 6 6 7 8 9 9 8 8 8 7 7 8 9 11 11 10 9 10 8 6 7 7 4 4 5 6 7 7 3 1 3 2 4 5 6 7 7 7 7 8 8 9 9
1 1 1 2 2 3 3 3 3 3 3 3 3 3 3 3 3 4 4 4 3 2 2 2 1 1 1 2 2 3 3 4 4 4 4 5 5 4 4 3 4 4 5 6 7 7 8 9 9 9 8 7 8 7 7 8 8 9 10 11 11 11 10 8 7 6 5 4 5 6 8 8 6 2 4 4 4 6 6 6 7 7 8 9 10 11 12 12
1 1 2 3 3 4 4 5 4 5 5 5 4 3 3 3 3 4 4 4 4 4 3 2 2 1 2 2 3 4 4 4 5 4 4 4 4 4 3 3 4 4 5 6 7 8 8 8 7 7 7 6 7 7 9 10 9 9 9 8 10 12 10 8 8 5 4 4 5 6 9 9 7 4 4 5 6 6 7 8 8 8 9 11 12 12 12 12
3 4 5 5 6 6 7 7 8 8 7 6 5 5 4 3 4 5 5 5 6 6 5 4 3 2 2 2 3 4 5 5 4 4 3 3 3 4 3 3 3 4 5 7 7 6 6 5 5 5 4 5 5 6 10 11 9 10 9 9 12 12 10 8 6 4 3 3 5 6 9 10 6 4 5 6 6 7 8 8 7 8 10 13 13 13 13 14
6 7 8 7 7 7 8 9 10 11 10 8 6 5 5 5 5 6 6 7 7 7 6 4 2 2 1 3 4 5 4 4 4 3 3 3 3 3 3 3 2 3 5 6 5 3 3 3 3 4 4 5 6 6 10 11 10 10 9 10 12 11 10 10 8 5 2 3 5 7 9 7 3 3 4 5 6 7 7 6 6 8 12 14 13 14 14 15
8 8 8 8 8 8 8 9 11 12 11 10 8 6 5 5 6 6 6 6 7 7 7 5 2 1 2 5 5 5 4 5 5 5 4 4 3 3 2 3 3 3 4 4 3 1 2 2 3 3 2 3 4 7 10 11 10 10 8 8 9 9 11 12 8 6 3 5 5 7 8 3 1 2 2 5 7 6 5 5 7 10 13 14 14 15 16 16
9 9 8 8 7 7 7 8 10 11 12 12 11 8 6 5 6 7 7 7 7 6 6 7 6 4 6 8 7 8 8 8 8 7 7 6 6 6 6 6 3 2 2 2 2 1 1 1 2 1 1 2 4 7 10 11 11 10 9 8 9 10 11 9 6 5 5 6 6 8 6 2 1 2 1 5 5 3 3 5 9 13 14 14 16 17 17 18
8 8 8 7 7 7 6 7 8 10 11 12 12 9 6 5 6 6 7 7 7 6 7 9 10 9 10 10 10 10 10 10 9 8 8 7 7 7 7 6 3 1 2 2 2 2 1 2 2 3 4 5 6 7 8 10 10 9 9 8 9 11 9 6 4 4 5 5 7 8 4 1 2 2 3 4 2 2 3 5 11 14 13 15 17 17 18 19
8 7 7 8 8 8 7 6 7 9 9 11 11 9 6 6 5 5 6 5 6 9 11 11 13 12 10 10 10 10 10 10 8 7 7 6 6 7 6 5 4 2 3 3 1 2 2 4 8 8 8 8 7 7 7 7 7 7 6 5 7 8 5 2 2 4 4 5 7 6 2 1 2 1 3 2 2 4 4 5 11 13 12 15 17 18 19 20
6 6 7 8 9 9 7 5 6 7 7 8 9 7 5 6 6 5 4 4 8 12 13 13 13 12 9 9 9 9 10 8 7 6 6 7 6 4 4 4 3 1 3 5 4 4 2 5 11 11 9 8 6 5 5 6 7 7 5 3 3 4 3 2 2 4 5 7 8 3 1 1 2 2 3 4 5 5 4 5 10 12 12 15 17 19 20 21
4 5 6 8 8 9 8 5 5 5 6 6 7 5 3 4 6 6 3 6 11 13 13 13 12 11 9 8 9 10 8 4 5 6 6 7 6 4 4 4 3 3 6 7 5 4 5 9 12 10 9 8 4 3 4 5 7 6 3 2 3 3 3 4 5 5 6 8 7 3 2 2 4 2 2 4 6 5 4 6 10 12 12 15 18 19 21 22
2 3 5 6 7 8 7 5 4 4 5 5 6 5 2 2 5 6 3 7 12 12 12 11 10 11 10 8 8 9 5 2 5 6 7 7 6 5 5 4 4 6 9 9 3 3 7 12 11 8 8 5 2 3 5 6 6 5 3 2 3 4 4 4 5 6 7 6 5 3 3 4 6 4 4 5 6 5 5 7 9 11 12 16 19 20 22 24
2 2 4 5 6 7 6 4 3 5 6 6 6 5 2 1 5 4 1 5 11 12 11 10 10 11 10 8 7 7 7 6 6 8 8 8 8 7 5 5 4 5 9 9 3 4 10 13 10 7 4 2 2 5 6 5 4 3 2 4 6 6 5 4 4 4 4 4 5 3 6 8 7 5 8 8 8 7 7 7 9 11 13 17 20 22 24 25
3 3 4 5 5 5 5 4 4 5 6 6 6 5 3 2 5 4 1 4 11 12 10 10 10 11 11 9 8 6 8 8 7 9 9 8 9 7 6 6 4 5 10 8 5 9 13 12 8 4 2 2 5 7 7 5 4 3 5 6 6 6 5 2 1 1 2 4 5 3 5 4 5 8 11 10 10 10 9 9 9 12 16 19 21 23 26 27
4 4 4 5 5 5 5 4 4 6 7 7 7 5 2 2 5 4 2 3 10 12 11 9 9 11 11 9 10 7 6 8 10 10 9 7 8 7 6 6 6 7 8 4 5 12 13 10 6 5 5 5 8 10 9 6 4 4 4 5 5 5 3 1 1 1 1 1 3 3 3 5 10 13 11 11 13 13 11 11 11 14 18 21 22 24 26 28
5 5 5 6 6 5 5 5 6 6 8 7 7 4 1 3 5 4 2 2 7 11 11 10 10 12 11 10 12 9 6 9 10 9 7 7 8 7 4 4 6 7 7 5 6 12 11 8 8 7 8 8 9 12 11 8 7 5 2 4 4 2 2 1 1 1 1 2 2 2 4 8 13 12 11 14 16 14 13 13 14 17 20 23 24 24 26 28
8 7 6 6 5 5 5 6 7 8 8 7 5 2 2 4 5 4 2 2 5 9 10 10 11 11 11 12 11 9 8 9 7 7 7 8 8 6 2 3 6 6 6 5 6 11 10 8 10 9 9 10 11 13 11 9 9 6 3 5 3 2 3 2 1 1 4 5 4 2 3 7 11 13 14 16 14 13 14 14 16 19 22 25 25 25 27 29
8 5 4 4 3 5 6 7 8 8 7 5 2 1 5 6 6 4 2 2 3 7 8 9 9 9 11 10 8 9 8 8 7 8 9 8 8 5 2 4 6 5 6 6 7 12 11 9 10 9 10 11 11 11 10 10 9 7 4 4 2 2 4 3 2 3 5 6 5 3 1 4 9 16 14 12 13 14 16 16 18 21 24 26 26 25 27 30
4 3 2 3 4 6 7 7 7 6 4 1 1 4 7 7 5 3 2 1 2 5 7 7 7 7 7 7 7 9 9 9 10 10 9 8 8 6 4 5 5 4 7 9 11 13 11 9 10 9 11 11 9 9 9 10 10 8 2 4 3 4 5 4 2 3 3 4 6 5 2 5 6 11 12 12 15 17 18 19 20 22 24 25 25 26 28 31
3 4 4 5 6 6 5 4 4 3 1 2 4 6 7 6 3 2 2 1 1 3 5 5 6 6 6 6 7 8 8 9 10 9 8 8 8 6 4 4 3 4 8 11 12 13 11 10 10 10 10 9 8 8 8 10 10 7 4 3 5 3 3 2 1 2 2 2 6 5 9 9 7 10 15 16 17 19 20 21 20 22 23 23 25 27 30 32
4 5 6 5 5 4 4 3 3 3 2 4 6 6 6 5 3 4 3 1 0 2 3 4 5 5 6 7 8 8 9 9 8 8 8 7 6 4 5 4 3 4 7 10 12 12 11 10 10 10 9 9 8 7 7 8 9 7 7 6 3 0 2 1 2 0 3 5 4 6 12 12 12 14 16 15 17 19 19 20 20 21 22 23 25 28 31 32
5 5 4 4 5 5 4 4 4 4 4 5 5 4 4 3 4 4 4 2 1 1 3 3 4 6 7 6 8 10 10 10 9 9 8 7 6 5 6 6 5 5 6 9 10 7 7 8 7 7 8 9 9 9 8 8 10 9 9 10 6 2 3 2 3 2 5 7 8 12 13 11 13 15 16 14 15 17 19 20 21 22 23 24 27 29 31 32
5 5 5 5 5 5 5 5 5 5 5 5 4 3 3 3 4 5 4 3 3 2 2 4 4 6 7 7 8 9 9 9 9 8 7 6 5 7 6 6 6 7 7 7 6 3 3 3 4 5 6 7 8 10 10 8 11 11 10 9 5 2 2 2 3 2 5 9 14 15 9 7 12 15 16 13 14 17 20 21 21 23 24 26 29 30 31 34
5 5 6 6 5 6 7 6 6 5 6 6 4 3 4 5 6 6 5 4 3 1 2 4 5 6 7 8 9 9 8 8 8 7 5 4 5 6 5 5 5 6 6 4 3 3 3 2 2 3 3 4 6 8 9 8 8 10 10 7 5 2 2 3 5 8 9 8 10 10 8 13 20 20 15 12 16 20 21 23 24 24 25 27 30 31 32 35
6 7 6 6 7 7 7 6 5 5 6 6 3 3 6 8 7 6 5 5 4 3 2 3 6 6 7 8 9 8 8 8 7 6 5 4 5 5 4 4 4 5 5 4 4 4 3 3 2 1 1 1 3 4 6 7 6 8 9 7 6 4 5 5 5 9 8 5 6 7 11 20 22 17 14 14 19 22 21 25 27 26 27 29 30 32 33 36
6 7 6 7 7 7 6 6 5 6 7 5 3 6 10 11 9 7 6 5 5 4 3 3 5 6 7 8 8 8 7 7 7 6 5 4 4 3 3 3 4 5 5 4 3 3 4 4 2 1 2 3 3 4 5 5 6 6 7 7 6 3 5 5 4 3 2 2 6 8 13 21 19 13 16 19 20 22 24 28 29 28 30 31 32 33 35 37
6 7 6 5 5 4 5 6 6 7 8 6 8 11 12 11 9 7 6 5 5 5 5 4 4 6 7 7 7 7 7 6 6 6 5 4 3 2 1 2 2 3 3 3 2 1 2 3 4 3 4 6 6 7 7 6 7 8 7 7 6 3 4 5 3 2 1 2 5 7 11 18 20 16 19 21 22 25 28 29 30 31 31 32 33 34 36 38
7 5 4 4 3 3 5 8 10 11 9 6 10 13 11 10 9 7 6 5 5 5 5 6 6 6 7 7 7 7 7 6 5 6 5 3 3 1 0 1 2 2 2 1 0 0 0 2 4 4 6 7 8 9 8 8 10 10 10 9 8 5 4 6 5 4 3 2 4 5 5 12 20 19 20 22 24 28 30 30 31 32 32 33 34 36 37 38
6 3 2 3 5 6 9 12 14 12 8 8 11 12 11 10 8 6 6 5 5 5 6 7 7 7 7 7 7 7 7 6 5 5 4 4 3 2 1 2 2 2 2 2 2 3 4 5 5 6 8 8 10 9 10 12 12 12 13 12 11 9 7 8 9 10 7 4 2 1 4 18 23 19 19 23 26 30 32 31 32 32 33 35 35 37 38 38
5 3 4 7 10 11 14 16 13 8 9 11 13 12 11 9 8 6 5 5 5 6 7 7 7 7 8 7 7 7 7 6 5 4 4 4 3 2 2 3 2 2 3 3 4 5 6 7 9 10 10 10 11 11 12 13 13 14 15 13 13 12 8 6 6 11 11 8 7 2 7 26 29 20 20 27 29 32 32 31 33 33 34 36 37 38 39 39
6 5 8 11 13 16 16 15 13 10 11 13 12 11 11 9 8 7 5 5 6 6 7 7 8 8 8 8 8 8 7 6 5 4 5 4 3 3 3 4 4 4 5 5 6 6 8 10 12 12 11 11 12 12 12 12 13 14 14 14 15 14 12 8 4 9 11 11 15 8 7 28 34 24 25 31 32 34 33 32 34 35 36 38 38 39 40 41
6 9 12 11 14 17 14 11 12 12 12 13 12 11 10 8 7 7 6 6 6 6 7 7 8 8 9 9 8 8 8 6 5 5 5 5 5 5 5 5 5 6 6 6 6 8 9 9 11 13 14 14 12 12 11 11 12 13 15 16 17 17 18 15 13 15 13 15 19 7 6 28 35 28 29 34 35 35 33 33 35 36 37 39 39 40 41 41
9 12 14 13 13 15 13 11 12 12 12 12 12 10 9 8 7 7 7 7 6 6 7 7 8 9 9 9 8 8 8 6 6 6 6 6 6 6 7 7 7 8 8 8 8 9 9 8 11 13 12 11 9 9 9 11 13 16 18 19 21 22 22 19 19 17 13 19 21 8 10 32 36 31 33 37 36 36 34 34 36 37 39 39 40 41 41 42
11 13 15 14 12 12 13 13 11 10 12 12 10 10 9 8 8 7 7 7 7 7 7 8 8 9 9 9 9 9 8 8 7 7 7 7 7 8 9 9 9 10 10 10 11 11 11 11 13 10 6 6 8 9 13 16 17 20 22 22 23 24 23 21 18 14 14 20 22 16 22 42 40 33 36 37 36 36 35 34 37 38 39 40 40 41 41 42
11 12 15 16 12 9 12 14 12 11 12 11 10 9 8 8 8 7 7 7 8 7 7 8 9 9 9 10 10 9 9 9 8 8 8 8 8 9 9 10 11 12 13 13 14 14 14 15 15 14 14 15 16 17 18 21 22 24 26 24 24 24 25 23 19 20 23 24 26 29 37 46 43 38 37 36 35 36 35 35 37 39 39 40 40 40 41 41
10 11 13 13 12 10 11 14 12 11 11 10 9 9 8 8 7 7 7 7 8 8 8 9 9 9 10 10 10 10 10 10 10 9 9 9 10 10 11 12 13 14 15 15 16 16 18 19 18 19 20 21 22 22 22 24 27 29 28 26 24 23 25 27 27 30 31 24 27 37 41 40 43 42 38 35 35 35 36 37 40 40 40 40 40 40 40 41
11 12 12 12 12 12 12 13 12 11 10 9 9 9 8 8 7 8 8 8 8 9 8 9 9 10 10 11 11 11 11 11 10 10 10 10 11 11 12 13 14 15 16 16 18 18 20 22 22 23 23 23 24 25 26 27 30 32 30 27 26 26 28 31 33 36 35 30 33 41 40 40 43 41 36 34 35 35 37 39 41 41 41 40 40 40 40 40
12 13 13 13 13 13 13 12 11 11 9 9 9 9 8 8 8 8 8 8 9 9 9 9 10 10 11 12 12 12 12 11 12 12 12 12 12 12 13 14 15 16 16 17 19 19 20 23 24 25 28 28 26 26 27 29 32 33 32 29 29 31 33 36 36 35 35 38 40 40 40 42 40 36 35 34 34 35 38 41 42 41 41 41 40 40 40 40
11 12 13 11 12 14 13 11 11 10 9 9 9 9 9 8 8 8 9 9 9 10 10 10 10 11 11 12 13 13 13 13 13 13 13 14 14 14 14 15 16 17 17 18 19 20 21 24 25 26 32 34 29 27 28 30 31 33 36 37 38 40 39 36 33 31 33 38 37 35 39 42 36 34 35 34 33 36 39 42 42 41 40 40 40 40 40 40
10 12 13 11 10 13 12 11 11 10 9 9 9 9 9 8 9 9 9 10 10 11 11 11 11 12 12 13 13 14 13 13 14 14 14 15 15 15 16 17 17 19 20 20 22 23 23 25 27 26 31 37 34 28 28 29 30 37 44 42 36 33 30 27 27 29 30 32 34 34 38 39 36 34 34 34 34 37 41 42 42 41 40 39 40 40 40 41
10 11 13 12 10 12 12 11 11 10 9 9 9 9 9 9 10 9 10 11 11 12 12 12 13 13 13 14 14 15 14 14 15 15 15 15 16 16 17 18 18 20 22 22 23 25 25 26 28 24 26 35 33 26 29 31 28 34 39 31 20 19 22 26 32 31 27 28 32 34 36 37 35 32 33 35 36 39 41 42 42 41 40 40 40 41 42 43
Wind_Direction
113 113 110 107 106 103 101 100 98 96 96 96 96 98 103 108 114 121 128 135 144 154 165 172 176 179 172 154 121 106 63 33 14 6 342 288 232 219 215 239 269 251 241 232 212 215 218 219 237 247 216 195 204 200 189 208 222 221 223 229 234 240 248 246 231 225 221 208 213 246 269 284 294 299 301 296 287 283 281 273 267 264 260 256 252 247 247 249
109 107 106 103 101 99 97 96 94 94 94 94 95 95 96 100 108 116 127 138 146 156 171 184 197 200 214 191 121 74 32 10 341 355 345 304 274 244 243 263 267 253 231 225 218 215 221 219 227 255 238 205 193 188 187 201 212 215 220 230 238 239 235 232 242 238 233 239 252 271 284 294 299 297 294 285 275 273 275 272 269 267 266 265 263 259 257 258
107 104 103 101 98 97 96 95 92 92 91 91 91 89 86 85 88 97 111 125 135 145 159 176 204 218 263 278 55 61 44 328 281 194 322 292 279 266 260 267 262 253 232 226 229 222 228 229 221 230 224 208 189 184 189 185 184 206 222 246 238 220 217 227 252 260 260 263 273 286 293 296 292 285 280 275 272 270 269 269 270 270 270 272 273 272 270 270
107 106 103 100 99 97 94 93 93 91 89 89 87 82 79 70 52 40 27 22 35 42 60 229 253 276 298 318 357 31 3 334 209 186 314 300 283 281 272 272 267 256 242 232 236 232 232 231 224 218 210 210 201 191 191 169 161 248 253 265 237 215 223 238 255 266 273 279 286 294 298 296 288 276 266 264 268 268 269 270 268 268 271 274 277 280 282 284
112 110 107 103 99 94 91 89 85 79 69 52 34 20 4 343 327 329 328 332 337 334 319 314 307 303 311 317 323 312 318 317 221 258 302 300 296 294 280 274 270 265 256 238 234 233 234 231 226 217 204 207 210 201 195 166 169 253 252 245 244 240 243 252 262 270 278 286 292 295 297 296 288 273 260 258 262 267 271 272 268 269 274 279 284 287 290 292
116 114 109 106 102 97 93 84 74 51 15 345 329 320 317 315 319 323 323 323 318 306 292 291 287 287 291 288 283 272 278 278 259 273 284 287 296 294 289 283 268 263 258 250 245 235 229 231 228 218 195 190 200 196 194 188 192 236 245 242 245 250 257 262 267 271 279 289 294 295 293 290 284 275 268 266 267 270 273 273 276 284 291 296 300 301 302 302
113 111 106 105 101 96 88 76 65 41 17 347 324 314 316 328 340 336 327 319 301 288 282 280 277 279 280 272 267 265 268 266 259 266 276 285 291 287 285 277 264 256 251 250 249 240 233 232 228 221 198 184 190 190 194 206 213 228 236 236 235 244 259 265 267 273 279 285 287 290 291 286 281 277 276 278 278 280 285 290 302 312 317 319 319 319 318 315
108 105 103 101 95 87 81 76 71 60 46 30 20 10 11 7 358 340 320 307 287 280 278 280 282 280 281 278 279 278 260 252 269 282 290 296 294 290 282 270 260 248 242 241 241 240 242 241 233 227 207 194 193 191 194 205 213 225 232 234 237 249 262 263 263 269 276 282 286 289 292 289 285 283 281 285 290 298 310 323 331 335 336 334 332 329 323 318
102 99 95 93 88 81 79 80 77 66 56 45 39 32 21 1 348 332 320 312 294 289 288 289 286 283 290 293 289 285 268 277 293 298 303 307 303 302 298 288 275 262 253 239 235 230 231 236 228 224 218 213 208 197 195 192 198 214 228 236 244 255 264 262 265 273 278 283 289 295 296 297 300 296 288 291 297 302 313 336 346 348 342 333 329 325 318 313
99 92 89 86 80 78 75 77 72 59 48 39 30 21 1 346 340 335 337 336 318 316 314 303 297 297 305 314 311 308 302 302 310 312 310 308 306 309 308 305 298 288 267 240 236 228 223 225 221 222 224 224 215 202 208 207 200 212 229 239 246 251 255 263 272 280 284 281 281 295 301 308 310 301 286 283 284 278 333 1 352 345 336 326 321 313 306 303
93 86 83 80 72 64 57 52 53 47 33 18 14 2 344 341 341 347 359 354 340 344 336 318 310 304 308 323 327 323 319 322 331 326 316 313 314 311 305 305 301 286 252 242 242 233 226 226 223 221 220 219 214 212 223 230 223 227 239 244 245 247 248 255 269 274 271 255 251 287 300 311 317 307 274 225 179 82 28 2 345 342 338 333 331 327 323 320
61 63 70 70 62 48 39 30 22 8 357 356 356 348 340 339 343 358 9 3 354 349 336 326 319 314 331 349 338 328 333 339 341 334 322 322 323 314 305 299 290 271 246 241 240 236 230 227 226 221 218 215 208 207 214 223 227 231 241 244 234 230 234 230 233 250 250 245 270 290 290 298 312 315 154 134 86 32 12 0 358 5 8 9 12 12 10 4
3 28 50 48 44 38 32 23 10 357 357 0 355 348 341 343 355 7 8 6 11 15 3 1 14 14 65 51 19 353 346 340 338 336 321 315 313 307 298 281 277 271 253 247 242 240 238 235 237 233 231 228 213 205 195 198 216 229 239 243 228 215 217 211 207 232 254 277 310 305 288 301 329 41 99 73 32 25 28 36 43 45 41 32 23 14 8 3
358 39 64 59 51 47 41 36 30 23 19 18 13 9 7 9 14 17 20 25 40 52 50 55 59 101 119 52 5 347 340 335 332 321 302 297 298 299 290 274 272 268 259 252 245 244 247 248 252 247 245 241 220 208 200 194 201 213 217 224 220 209 203 201 206 231 269 303 332 318 303 327 1 43 57 39 39 53 64 69 65 56 42 24 13 7 4 2
61 73 76 72 65 58 55 50 46 40 33 27 24 25 32 39 41 45 54 56 57 58 61 71 89 120 108 12 341 339 339 337 331 314 307 309 308 311 300 286 274 268 264 259 258 260 258 256 255 243 237 227 198 193 200 190 179 186 188 194 207 212 205 199 203 223 261 304 337 323 315 334 353 21 36 45 69 83 84 77 64 46 26 13 12 12 10 9
74 78 77 74 68 61 59 56 52 47 40 36 33 34 37 44 57 68 74 70 61 54 57 59 72 130 44 356 357 360 358 352 348 349 353 341 327 313 293 294 289 277 271 267 271 272 256 251 240 220 210 198 186 194 197 179 165 178 191 197 203 213 204 191 194 208 247 317 326 317 319 329 347 19 32 70 95 98 91 76 52 27 14 11 15 15 12 10
79 79 75 70 64 55 53 52 50 46 42 41 38 38 42 50 69 80 81 75 61 49 54 52 48 135 32 22 30 31 41 36 25 32 25 16 12 351 345 359 329 291 276 266 263 254 257 244 230 228 227 207 192 200 190 165 151 165 179 180 181 198 198 191 199 210 254 306 311 316 328 343 82 12 34 107 110 104 87 60 29 12 10 13 15 12 8 6
82 78 70 61 49 40 38 42 45 42 40 38 36 37 45 67 84 89 84 69 56 46 46 45 48 77 54 43 53 54 54 47 41 43 40 42 43 32 31 32 10 292 244 255 261 246 275 249 215 201 158 154 169 188 187 168 153 154 159 159 159 174 189 199 216 227 266 304 328 338 349 41 94 1 100 129 118 95 63 33 11 4 9 12 9 7 4 2
79 72 63 49 37 26 19 30 37 36 36 33 32 35 46 77 88 87 81 68 64 64 56 49 53 62 56 49 53 54 51 43 39 40 40 46 50 46 41 41 48 110 163 194 230 186 54 53 100 113 110 111 125 147 163 162 157 153 156 160 158 166 181 202 231 261 298 325 345 352 2 63 38 32 140 147 120 15 11 8 359 359 6 6 3 1 359 357
73 64 54 43 33 24 17 23 32 33 32 27 27 31 45 70 72 69 85 84 68 66 63 55 52 55 52 44 43 47 49 41 37 41 43 46 45 43 36 43 61 82 123 138 149 100 55 69 92 91 87 95 110 121 132 142 140 133 143 165 171 179 192 196 240 288 307 324 339 350 9 50 40 87 176 200 297 327 337 342 347 353 360 359 357 357 355 353
65 53 44 38 31 27 26 29 34 32 27 22 20 25 49 74 75 76 100 86 61 60 59 52 50 52 50 46 38 37 41 35 33 40 45 48 43 34 30 43 57 72 94 92 72 73 94 92 87 85 85 91 100 113 132 149 142 129 128 165 194 211 221 196 223 267 283 312 328 328 240 188 131 155 213 262 294 313 316 318 335 346 354 352 352 353 352 350
52 44 36 30 29 28 28 37 40 28 20 14 12 20 54 100 104 101 87 58 59 59 55 49 48 48 47 50 42 35 33 14 18 33 44 49 46 50 61 56 60 71 69 65 64 89 105 84 76 74 75 78 86 123 159 180 173 166 180 239 233 224 204 199 222 255 280 305 309 270 240 208 174 184 268 292 297 299 303 312 330 341 347 347 348 349 349 348
24 28 25 21 25 24 22 37 39 22 13 1 3 15 41 145 140 125 68 51 62 62 58 51 45 45 44 45 44 41 41 12 16 33 44 45 40 49 64 62 55 65 66 64 90 139 93 77 69 60 57 59 93 162 180 195 195 200 231 220 185 182 199 220 243 271 287 292 277 247 276 261 215 226 302 316 305 289 288 307 326 333 335 338 341 343 344 344
346 348 5 4 15 18 11 19 18 11 5 353 356 356 351 176 176 162 71 46 59 58 57 50 43 43 40 38 41 41 41 34 27 36 44 46 45 46 53 60 56 71 77 73 86 109 85 76 67 58 48 30 117 160 172 180 189 186 153 142 138 154 190 226 259 280 275 246 234 252 299 281 232 253 305 310 302 291 276 287 318 329 327 328 332 336 338 339
338 324 335 341 355 0 355 356 352 355 353 346 345 340 341 188 186 173 156 51 49 44 43 39 36 34 31 34 37 34 34 33 38 45 47 50 52 46 40 50 58 72 81 78 60 76 83 80 75 78 87 89 115 131 128 125 148 137 120 126 127 145 167 197 292 283 250 231 234 262 313 286 251 289 299 291 294 293 274 273 303 326 328 327 327 329 331 333
328 318 316 318 323 333 337 339 339 338 338 336 332 330 330 182 179 174 169 61 40 33 34 28 26 26 23 30 33 31 27 30 44 49 46 50 54 50 36 41 65 78 94 108 64 74 84 88 98 107 103 110 114 104 92 90 99 101 120 128 124 142 167 204 25 18 311 242 237 259 293 277 287 299 287 280 297 299 282 276 291 313 323 324 323 323 324 326
309 304 300 299 301 313 322 327 331 326 325 326 323 322 248 175 172 182 187 61 18 18 26 22 24 22 18 29 30 27 29 32 45 50 45 50 50 48 31 41 73 83 102 108 75 81 90 101 112 112 107 108 99 87 77 72 67 58 99 131 121 131 188 223 2 357 226 197 196 243 284 280 288 294 285 290 305 308 295 282 286 302 314 318 319 318 318 321
299 296 292 292 293 303 312 318 318 314 316 315 315 312 172 159 157 177 161 85 14 12 19 20 24 17 19 30 24 26 40 38 46 51 45 47 46 40 8 72 71 63 77 82 90 99 104 111 110 106 104 93 81 77 69 66 63 48 90 139 154 189 190 198 260 212 191 198 195 209 265 266 280 291 294 298 304 311 307 292 289 299 308 314 316 314 314 317
301 304 301 297 296 304 308 310 307 307 312 310 306 162 164 151 141 156 127 87 17 13 18 19 21 17 23 28 18 25 34 32 44 49 43 45 48 27 350 74 65 46 75 89 109 110 110 111 106 100 93 82 74 71 62 63 62 51 95 156 186 168 172 173 197 196 188 205 204 174 213 260 287 295 299 302 304 312 312 303 298 301 306 311 313 311 311 314
323 353 350 327 313 310 307 309 311 312 317 317 152 157 156 145 143 148 101 82 7 16 20 20 24 28 33 28 21 27 24 23 35 39 35 39 44 28 23 85 79 57 91 103 107 106 105 103 100 92 83 77 69 63 52 53 53 45 79 191 185 125 136 139 165 190 177 225 210 180 348 329 295 299 309 312 311 313 311 307 305 305 307 309 309 308 308 311
27 12 346 326 319 320 323 329 333 340 1 107 136 147 145 140 145 130 102 115 8 20 15 17 24 32 35 24 23 32 31 28 32 35 33 36 40 33 44 92 107 87 98 108 106 105 107 100 91 82 76 70 61 51 44 46 47 44 60 158 182 163 141 124 55 132 150 276 228 225 318 316 266 289 313 312 310 312 310 309 307 306 305 305 304 304 305 309
14 349 335 334 347 4 13 14 25 43 66 111 128 136 137 126 90 88 113 167 286 22 15 23 25 23 28 23 21 29 32 29 33 38 43 50 48 40 53 76 120 121 112 116 110 107 110 103 93 88 77 68 59 45 44 43 37 39 47 65 110 350 21 357 345 60 232 267 243 256 303 298 267 288 312 312 310 310 307 307 306 305 304 302 302 302 305 310
355 352 358 14 30 38 39 44 60 66 84 114 127 136 149 132 83 87 111 130 137 99 31 26 23 19 20 17 21 28 26 22 25 31 37 45 39 37 55 67 91 113 120 128 124 113 106 95 86 84 70 62 55 42 45 37 28 29 29 37 50 67 49 312 279 314 275 269 278 286 296 289 275 297 317 315 311 309 308 309 307 304 303 302 303 305 308 311
4 23 35 37 42 51 56 68 78 79 92 111 123 136 145 127 110 105 99 95 121 126 42 30 23 14 11 13 24 27 23 21 23 29 33 34 34 40 51 59 79 105 122 132 135 131 122 91 66 71 58 48 45 40 40 31 26 24 19 25 30 87 100 267 248 260 281 284 294 293 289 276 284 308 321 314 313 315 315 315 311 306 304 304 306 308 311 312
35 44 38 40 58 70 71 79 88 90 99 105 107 124 131 122 121 115 95 88 104 102 30 28 17 7 5 11 18 18 18 21 20 28 35 39 47 52 63 68 76 107 128 149 156 136 133 125 90 89 66 42 40 35 32 32 28 19 16 14 354 316 218 244 247 256 275 299 301 278 259 281 296 311 318 313 318 321 320 319 316 311 308 306 308 311 312 312
52 46 47 61 75 77 78 83 88 97 108 107 97 107 122 121 119 114 98 89 84 62 20 8 5 5 4 7 12 10 9 15 14 20 26 31 48 55 71 83 89 101 114 152 170 154 148 147 140 118 63 24 24 18 17 23 17 10 13 6 341 296 247 255 260 266 278 300 287 251 268 293 302 312 320 321 323 322 321 320 319 315 312 310 311 313 312 313
60 57 60 66 69 76 86 91 99 104 99 105 122 114 112 113 112 110 100 84 76 60 33 4 356 3 8 8 10 6 3 8 7 9 15 20 35 41 52 83 105 101 104 124 137 166 189 187 193 283 313 309 328 326 326 345 348 347 357 359 351 308 259 251 253 296 325 287 270 246 267 291 296 306 325 327 323 322 322 321 320 317 314 313 314 314 313 313
69 65 53 51 65 79 88 101 117 105 86 95 119 111 106 109 109 106 95 76 66 52 31 20 5 4 9 9 6 4 5 7 6 7 8 3 3 13 54 99 118 113 119 121 102 135 190 215 235 276 309 309 312 309 302 303 309 312 322 337 341 305 251 233 229 303 312 263 286 259 256 280 286 299 324 326 320 322 325 322 319 317 315 314 314 313 313 313
67 55 26 30 63 92 106 108 100 90 89 103 110 105 104 107 105 97 86 68 52 41 26 19 14 8 10 9 4 5 6 7 12 10 0 348 338 328 247 160 165 164 160 151 124 77 307 258 256 282 298 298 298 297 290 285 292 301 307 313 315 304 275 256 238 233 224 213 289 287 250 277 295 313 323 320 319 323 325 322 317 315 315 314 313 312 312 313
60 45 13 50 86 109 109 97 81 81 105 111 100 103 105 104 98 86 76 61 42 37 26 17 16 11 8 7 3 4 5 3 6 5 354 344 325 293 246 207 196 209 237 267 289 303 297 276 276 295 295 291 291 288 285 288 291 291 295 297 295 295 292 280 266 253 241 200 227 313 269 283 306 330 320 315 323 325 324 320 315 316 315 313 312 312 313 313
57 63 82 93 103 100 88 84 84 97 115 102 95 100 99 95 89 78 66 53 39 32 24 17 15 11 7 7 4 3 2 355 356 355 341 335 315 281 262 242 240 243 248 269 286 293 295 282 277 285 292 292 289 288 286 289 289 286 289 288 281 286 284 272 268 258 245 226 233 220 270 288 310 335 317 316 327 326 324 318 314 316 314 313 313 313 313 314
54 84 99 102 100 90 81 86 99 106 101 96 96 96 92 88 80 71 58 47 39 28 22 16 11 10 8 5 2 0 358 349 347 346 333 323 294 276 275 262 259 262 264 274 275 279 294 291 279 278 289 291 288 285 278 280 284 283 285 282 278 282 275 255 247 264 256 247 254 242 253 288 310 330 318 319 327 325 322 317 314 316 314 314 314 313 314 315
75 98 102 102 96 92 91 93 97 97 95 95 95 90 88 85 73 63 52 45 37 25 21 14 10 10 6 3 360 356 354 346 337 335 327 314 292 275 267 268 274 273 274 277 278 286 298 295 286 289 295 293 284 279 274 275 280 281 287 287 282 282 280 272 265 269 267 256 256 229 226 282 307 327 316 318 325 324 321 316 314 315 314 315 314 313 315 315
100 100 98 97 91 94 99 92 87 93 95 93 91 87 84 80 69 58 48 42 34 26 20 12 10 8 3 2 359 354 353 346 336 331 319 308 296 280 269 270 274 275 279 284 287 294 297 293 294 303 310 308 296 290 289 287 285 286 290 290 287 286 283 276 269 264 261 261 257 215 235 279 305 321 312 317 325 322 319 315 313 314 313 314 313 313 314 315
99 101 100 96 87 90 98 92 84 86 87 87 88 85 79 73 63 53 44 38 32 26 18 13 10 5 2 0 356 354 349 340 335 328 317 310 297 284 275 270 273 278 282 285 288 293 292 288 290 291 287 283 284 291 297 297 293 289 289 289 289 287 280 274 267 248 247 261 251 229 260 285 303 312 307 316 323 318 315 312 310 312 312 312 313 313 314 314
97 98 98 96 92 90 93 92 87 82 80 83 84 80 75 67 58 49 41 35 29 22 15 12 8 3 3 358 353 352 345 337 335 326 320 312 298 288 280 274 276 278 279 283 286 289 288 287 287 280 271 272 281 288 294 297 293 289 290 290 285 282 278 270 255 246 258 264 255 257 274 287 299 306 309 316 320 315 311 310 310 312 312 312 313 313 314 314
98 95 93 96 100 96 88 89 89 80 77 78 78 76 70 62 54 45 38 31 24 19 12 7 4 1 0 356 352 351 345 338 333 325 320 312 300 292 284 280 279 277 279 283 283 284 287 287 287 284 282 285 288 290 293 295 292 290 292 289 281 277 274 264 255 263 273 266 263 278 285 285 293 305 312 315 317 313 309 311 313 313 313 314 314 314 314 314
97 96 95 95 97 94 88 88 86 80 76 73 71 70 63 55 49 39 33 27 21 18 10 3 360 357 357 355 353 351 345 337 330 325 321 312 303 296 288 284 281 280 282 282 282 286 285 286 289 289 288 289 290 293 296 294 291 289 288 285 281 277 274 270 272 278 276 265 270 287 290 284 292 307 315 316 314 311 309 312 313 313 315 315 316 316 316 314
96 96 93 91 92 91 87 84 84 80 74 67 65 63 55 47 42 35 29 23 18 15 8 1 357 354 354 352 350 348 344 336 329 325 321 314 309 302 294 289 286 285 285 283 284 285 283 287 291 291 291 290 289 293 295 292 291 290 287 285 283 280 279 280 283 284 277 271 278 288 287 285 296 311 316 314 311 307 309 312 313 314 316 317 317 316 315 314
97 95 91 88 88 88 84 80 80 77 70 65 61 56 50 42 36 30 25 20 17 12 6 0 355 353 351 348 346 346 342 335 327 322 319 316 312 306 300 296 293 289 287 287 286 285 285 287 290 294 294 292 292 295 294 293 293 291 288 287 285 284 282 280 281 283 276 274 283 288 283 288 306 318 313 309 308 307 310 313 313 315 316 317 317 316 316 316
93 92 91 89 86 85 81 75 74 71 67 63 55 50 46 38 32 28 20 16 14 9 5 0 355 352 349 345 343 341 338 334 328 322 318 315 312 307 301 300 299 293 289 289 287 287 287 287 292 298 295 293 298 301 296 295 294 290 291 293 290 283 276 275 284 286 278 278 286 284 280 293 314 319 309 306 307 308 310 313 313 315 318 318 317 317 317 317
92 89 90 90 87 85 81 73 70 67 62 58 52 46 41 33 30 25 17 14 10 6 3 359 354 351 347 344 340 337 335 333 329 324 319 315 311 307 302 300 299 296 293 291 289 288 289 289 292 296 292 293 299 300 298 302 298 292 297 303 296 279 276 286 292 288 280 281 283 281 288 304 315 312 306 308 309 308 311 314 315 318 321 320 318 319 319 317